Flag for Canada Weather past 2 weeks in Charlottetown, Pr.Edward I, Canada

Now
23 °F

Sleet. Ice fog.


Feels Like: 7 °F
Forecast: 14 / 29 °F
Wind: 25 mph from Northeast

Location: Charlottetown

Current Time: Jan 28, 2015 at 12:58:53 AM

Latest Report: Jan 28, 2015 at 12:00 AM


Visibility: 1 mi

Pressure: 29.54 "Hg

Humidity: 93%

Dew point: 21 °F

Location of CharlottetownLocation

Historic Weather in Charlottetown — Graph

°F

Charlottetown temperature yesterday

Maximum temperature yesterday: 34 °F (at 10:50 AM)
Minimum temperature yesterday: 9 °F (at 12:00 AM)
Average temperature yesterday: 21 °F

Past Weeks' High & Low Weather Summary

 TemperatureHumidityPressure
High45 °F (Jan 19, 4:00 PM)100% (Jan 16, 4:50 AM)30.58 "Hg (Jan 16, 4:50 AM)
Low-4 °F (Jan 17, 6:00 AM)52% (Jan 26, 12:00 PM)28.47 "Hg (Jan 25, 3:00 AM)
Average20 °F78%29.90 "Hg
* Reported Jan 12 11:00 PM — Jan 27 11:00 PM, Charlottetown, Weather by CustomWeather, © 2014

Note: Actual official high and low records may vary slightly from our data, if they occured in-between our weather recording intervals... More about our weather records

Advertising

Charlottetown weather history for previous 24 hours

 ConditionsComfort  
Time TempWeatherWind HumidityBarometerVisibility
11:00 PM
Jan 27
23 °FSleet. Ice fog.29 mph93%29.55 "Hg1 mi
10:00 PM23 °FSleet. Ice fog.26 mph86%29.58 "Hg1 mi
9:00 PM23 °FSleet. Overcast.37 mph86%29.58 "Hg1 mi
8:00 PM23 °FLight snow. Overcast.37 mph86%29.61 "Hg3 mi
7:00 PM23 °FLight snow. Overcast.31 mph80%29.68 "Hg3 mi
6:00 PM34 °FChilly.15 mph100%29.70 "HgN/A
5:00 PM21 °FCold.15 mph86%29.72 "HgN/A
4:00 PM19 °FLight snow. Overcast.29 mph93%29.75 "Hg0 mi
3:00 PM34 °FChilly.18 mph100%29.78 "HgN/A
2:00 PM34 °FChilly.16 mph100%29.85 "HgN/A
1:00 PM34 °FChilly.18 mph100%29.94 "HgN/A
12:00 PM34 °FChilly.21 mph100%29.91 "HgN/A
11:00 AM34 °FChilly.21 mph100%29.94 "HgN/A
10:50 AM34 °FChilly.21 mph100%29.95 "HgN/A
10:00 AM18 °FBlizzard. Ice fog.40 mph93%29.93 "Hg0 mi
9:49 AM18 °FBlizzard. Ice fog.36 mph93%29.95 "Hg0 mi
9:00 AM18 °FSnow. Ice fog.29 mph93%30.03 "Hg1 mi
8:00 AM16 °FSnow. Ice fog.29 mph93%30.13 "Hg1 mi
7:47 AM16 °FSnow. Ice fog.26 mph93%30.15 "Hg1 mi
7:00 AM16 °FLight snow. Overcast.24 mph79%30.19 "Hg8 mi
6:00 AM16 °FLight snow. Mostly cloudy.24 mph73%30.21 "Hg12 mi
5:00 AM16 °FLight snow. Mostly cloudy.16 mph73%30.27 "Hg12 mi
4:00 AM12 °FLight snow. Overcast.12 mph79%30.32 "Hg10 mi
3:00 AM12 °FMostly cloudy.16 mph73%30.32 "Hg15 mi
2:00 AM10 °FMostly cloudy.16 mph72%30.35 "Hg15 mi
1:00 AM10 °FClear.14 mph67%30.37 "Hg15 mi
12:00 AM9 °FClear.8 mph78%30.38 "Hg15 mi
Weather by CustomWeather, © 2014

See weather overviewHow to use our weather pages